McConnell AFB, KS

5:46 AM CST on November 14, 2019 (GMT -0600)
McConnell Air Force Base

Weather History for KIAB - September, 2019

Change the Weather History Date:

Thursday, September 19, 2019

  Actual Average Record
Temperature  
Mean Temperature 80 °F -  
Max Temperature 89 °F 78 °F 98 °F (2000)
Min Temperature 70 °F 57 °F 42 °F (2003)
Cooling Degree Days 14    
Growing Degree Days 30 (Base 50)    
Moisture  
Dew Point 65 °F    
Average Humidity 63    
Maximum Humidity 84    
Minimum Humidity 44    
Precipitation  
Precipitation 0.00 in - - ()
Sea Level Pressure  
Sea Level Pressure 29.94 in    
Wind  
Wind Speed 9 mph (ESE)    
Max Wind Speed 17 mph    
Max Gust Speed 20 mph    
Visibility 10 miles    
Events      
Averages and records for this station are not official NWS values.
T = Trace of Precipitation, MM = Missing Value Source: NWS Daily Summary

Daily Weather History Graph

Daily Weather History Graph

Search for Another Location

Airport or City:

Astronomy

Sep. 19, 2019 Rise Set
Actual Time 7:14 AM CDT 7:30 PM CDT
Civil Twilight 6:48 AM CDT 7:57 PM CDT
Nautical Twilight 6:17 AM CDT 8:27 PM CDT
Astronomical Twilight 5:46 AM CDT 8:58 PM CDT
Moon 10:46 PM CDT (9/19) 12:13 PM CDT (9/19)
Length of Visible Light 13h 09m
Length of Day
12h 16m
Waning Gibbous, 74% of the Moon is Illuminated
Sep 19
Waning Gibbous
Sep 21
Last Quarter
Sep 28
New
Oct 5
First Quarter
Oct 13
Full

Hourly Weather History & Observations

Time (CDT) Temp. Heat Index Dew Point Humidity Pressure Visibility Wind Dir Wind Speed Gust Speed Precip Events Conditions
12:56 AM 75.0 °F - 65.3 °F 72% 29.94 in 10.0 mi ESE 9.2 mph - N/A   Clear
1:56 AM 74.3 °F - 65.5 °F 74% 29.93 in 10.0 mi ESE 8.1 mph - N/A   Clear
2:56 AM 72.5 °F - 65.1 °F 78% 29.93 in 10.0 mi SE 5.8 mph - N/A   Clear
3:56 AM 71.8 °F - 65.3 °F 80% 29.94 in 10.0 mi ESE 4.6 mph - N/A   Clear
4:56 AM 72.7 °F - 65.3 °F 78% 29.94 in 10.0 mi ESE 5.8 mph - N/A   Clear
5:56 AM 71.8 °F - 65.3 °F 80% 29.94 in 10.0 mi ESE 5.8 mph - N/A   Clear
6:56 AM 70.3 °F - 65.3 °F 84% 29.94 in 10.0 mi SE 5.8 mph - N/A   Clear
7:56 AM 71.4 °F - 66.4 °F 84% 29.96 in 10.0 mi SE 4.6 mph - N/A   Clear
8:56 AM 77.5 °F - 67.3 °F 71% 29.96 in 10.0 mi SSE 5.8 mph - N/A   Clear
9:56 AM 81.0 °F 83.3 °F 66.7 °F 62% 29.97 in 10.0 mi South 8.1 mph - N/A   Clear
10:56 AM 85.1 °F 87.9 °F 67.1 °F 55% 29.98 in 10.0 mi SSE 9.2 mph - N/A   Clear
11:56 AM 86.5 °F 88.4 °F 65.1 °F 49% 29.98 in 10.0 mi SSE 16.1 mph - N/A   Clear
12:56 PM 88.3 °F 90.5 °F 66.0 °F 47% 29.97 in 10.0 mi ESE 13.8 mph 19.6 mph N/A   Clear
1:56 PM 87.3 °F 89.2 °F 65.1 °F 48% 29.95 in 10.0 mi ESE 17.3 mph - N/A   Clear
2:56 PM 87.3 °F 89.2 °F 65.7 °F 48% 29.94 in 10.0 mi ESE 13.8 mph - N/A   Scattered Clouds
3:56 PM 89.1 °F 91.0 °F 64.9 °F 45% 29.92 in 10.0 mi ESE 15.0 mph - N/A   Clear
4:56 PM 89.4 °F 91.2 °F 64.6 °F 44% 29.90 in 10.0 mi ESE 16.1 mph - N/A   Clear
5:56 PM 86.2 °F 87.9 °F 64.8 °F 49% 29.90 in 10.0 mi ESE 15.0 mph - N/A   Partly Cloudy
6:56 PM 85.1 °F 86.9 °F 64.9 °F 51% 29.90 in 10.0 mi East 11.5 mph - N/A   Partly Cloudy
7:56 PM 81.9 °F 83.5 °F 64.6 °F 56% 29.90 in 10.0 mi ESE 11.5 mph - N/A   Clear
8:56 PM 80.1 °F 81.9 °F 64.9 °F 60% 29.93 in 10.0 mi ESE 9.2 mph - N/A   Clear
9:56 PM 78.6 °F - 65.3 °F 64% 29.94 in 10.0 mi ESE 6.9 mph - N/A   Clear
10:56 PM 76.6 °F - 65.3 °F 68% 29.93 in 10.0 mi ESE 9.2 mph - N/A   Clear
11:56 PM 76.5 °F - 65.1 °F 68% 29.93 in 10.0 mi ESE 9.2 mph - N/A   Clear